"Time","Temp","Dewpoint","Humidity","Pressure","Direction","Speed","Gust","Precip","PrecipRate"
"00:04:57","64.5","44.5","48.2","30.02","276","1.9","8","0.00","0.00"
"00:09:56","64.4","44.4","48.3","30.02","325","3.4","14","0.00","0.00"
"00:14:58","64.3","44.3","48.2","30.02","327","3","13.8","0.00","0.00"
"00:19:58","64.2","44.3","48.5","30.02","348","2.1","7","0.00","0.00"
"00:24:58","64","44","48.2","30.02","346","3.5","14","0.00","0.00"
"00:29:57","64","44.2","48.5","30.03","358","2.6","7","0.00","0.00"
"00:34:57","63.9","44.2","48.8","30.03","347","4.2","14","0.00","0.00"
"00:39:58","63.8","44.1","48.6","30.03","348","3.3","13.8","0.00","0.00"
"00:44:58","63.7","44.2","49","30.04","338","2.5","10","0.00","0.00"
"00:49:58","63.6","44.2","49.3","30.04","333","2.6","10.4","0.00","0.00"
"00:54:58","63.4","44.2","49.5","30.04","326","3.3","9.2","0.00","0.00"
"00:59:58","63.3","44.1","49.6","30.04","334","2.2","7","0.00","0.00"
"01:04:56","63.1","44.2","50.1","30.04","327","2.5","8.1","0.00","0.00"
"01:09:59","62.9","44","50.2","30.04","333","1.9","5","0.00","0.00"
"01:14:56","62.7","44.3","51","30.04","339","2.5","9.2","0.00","0.00"
"01:19:56","62.6","44.2","51.2","30.04","334","2.6","9.2","0.00","0.00"
"01:24:59","62.4","44.2","51.4","30.04","318","2.8","8.1","0.00","0.00"
"01:29:59","62.2","44","51.4","30.04","327","2.5","7","0.00","0.00"
"01:34:56","62","44.1","51.8","30.04","315","2.9","7","0.00","0.00"
"01:39:57","61.9","44.1","52","30.04","342","2.6","6","0.00","0.00"
"01:44:57","61.7","44","52.2","30.05","325","2.5","7","0.00","0.00"
"01:49:56","61.7","44","52.1","30.05","322","3.6","9.2","0.00","0.00"
"01:54:56","61.8","44.1","52.2","30.05","325","3.8","16.1","0.00","0.00"
"01:59:56","61.8","44","52","30.05","337","4.5","13","0.00","0.00"
"02:04:58","61.8","44.3","52.6","30.05","334","3.3","11.5","0.00","0.00"
"02:09:57","61.7","44","52.3","30.05","330","4.3","10.4","0.00","0.00"
"02:14:58","61.7","43.9","52","30.05","304","4.2","11.5","0.00","0.00"
"02:19:57","61.6","44.1","52.5","30.05","299","2.5","10.4","0.00","0.00"
"02:24:57","61.4","43.7","52.1","30.05","338","3.8","11.5","0.00","0.00"
"02:29:57","61.3","43.3","51.5","30.06","327","4.6","14","0.00","0.00"
"02:34:57","61.3","43.1","51.1","30.06","336","4.1","14","0.00","0.00"
"02:39:58","61.2","42.9","51.1","30.06","331","3.1","10.4","0.00","0.00"
"02:44:58","61","42.5","50.7","30.07","311","2","6","0.00","0.00"
"02:49:59","60.9","42.3","50.4","30.07","343","3.2","10.4","0.00","0.00"
"02:54:59","60.8","42.4","50.7","30.07","296","2.7","10.4","0.00","0.00"
"02:59:58","60.6","42.5","51.3","30.07","338","3.6","10.4","0.00","0.00"
"03:04:57","60.4","42.8","52.1","30.06","335","3.4","12","0.00","0.00"
"03:09:56","60.3","43","52.8","30.06","303","3","9.2","0.00","0.00"
"03:14:56","60","43.2","53.8","30.06","335","3.9","9.2","0.00","0.00"
"03:19:56","59.8","43.5","54.7","30.06","309","2","6.9","0.00","0.00"
"03:24:56","59.5","43.9","56.2","30.06","336","3.3","10.4","0.00","0.00"
"03:29:56","59.3","43.9","56.6","30.06","324","1.9","9.2","0.00","0.00"
"03:34:56","59.1","43.8","56.8","30.06","302","2.6","7","0.00","0.00"
"03:39:58","58.9","43.5","56.5","30.06","327","2.5","6.9","0.00","0.00"
"03:44:58","58.7","43.7","57.3","30.06","330","2.1","6","0.00","0.00"
"03:49:58","58.5","43.9","58.3","30.06","328","2","5.8","0.00","0.00"
"03:54:58","58.2","44.6","60.4","30.06","265","1.7","5","0.00","0.00"
"03:59:58","57.9","44.4","60.8","30.06","329","1.9","5","0.00","0.00"
"04:04:56","57.5","44.2","61","30.06","311","1.1","4","0.00","0.00"
"04:09:59","57.3","44.3","61.8","30.06","270","1.4","4","0.00","0.00"
"04:14:56","57","44.4","62.6","30.07","291","1.3","3.5","0.00","0.00"
"04:19:56","56.9","44.4","63.1","30.07","299","1","3.5","0.00","0.00"
"04:24:56","56.8","44.7","63.8","30.07","287","0.8","3.5","0.00","0.00"
"04:29:56","56.6","44.4","63.5","30.08","283","1.5","5","0.00","0.00"
"04:34:56","56.6","45.1","65.2","30.08","225","1.3","3.5","0.00","0.00"
"04:39:57","56.5","44.8","64.7","30.08","301","1.5","5","0.00","0.00"
"04:44:59","56.4","44.7","64.8","30.08","307","0.9","3.5","0.00","0.00"
"04:49:59","56.1","44.8","65.6","30.08","307","0.6","2.3","0.00","0.00"
"04:54:59","55.8","44.7","66.2","30.08","289","0.8","4","0.00","0.00"
"04:59:59","55.6","44.8","67","30.08","260","0.8","3.5","0.00","0.00"
"05:04:57","55.4","45","67.9","30.08","281","1","3.5","0.00","0.00"
"05:09:56","55.3","45.5","69.5","30.08","236","0.8","3.5","0.00","0.00"
"05:14:58","55.2","45.1","68.7","30.08","258","1.4","3.5","0.00","0.00"
"05:19:58","55.2","45.1","68.7","30.08","319","1.9","5","0.00","0.00"
"05:24:58","55.4","45.2","68.4","30.08","286","1.5","6","0.00","0.00"
"05:29:57","55.3","45.3","69","30.09","294","1.8","7","0.00","0.00"
"05:34:58","55.3","45.3","69","30.09","304","1.2","4","0.00","0.00"
"05:39:56","55.3","45.3","69","30.09","305","1.3","4","0.00","0.00"
"05:44:59","55.3","45.7","70.1","30.10","279","1.8","5","0.00","0.00"
"05:49:59","55.3","45.4","69.3","30.10","290","1.5","5","0.00","0.00"
"05:54:59","55.2","45.6","70","30.10","244","1.3","3.5","0.00","0.00"
"05:59:56","55.1","45.5","70","30.10","222","1.3","5","0.00","0.00"
"06:04:58","55","45.4","70","30.10","277","1.1","4","0.00","0.00"
"06:09:58","55","45.4","70","30.10","182","1.6","3.5","0.00","0.00"
"06:14:59","55.1","45.5","70","30.11","316","1.7","4","0.00","0.00"
"06:19:59","55.2","45.6","70","30.11","321","1.3","3.5","0.00","0.00"
"06:24:58","55.2","45.7","70.2","30.11","289","1.7","4","0.00","0.00"
"06:29:58","55.3","45.8","70.3","30.11","251","1.5","3.5","0.00","0.00"
"06:34:58","55.3","45.9","70.6","30.11","301","1.4","6","0.00","0.00"
"06:39:58","55.4","45.9","70.3","30.11","289","2.4","6","0.00","0.00"
"06:44:58","55.6","46","70.2","30.11","299","1.8","6","0.00","0.00"
"06:49:57","55.8","46.2","70","30.11","297","2.3","7","0.00","0.00"
"06:54:56","56.1","46.2","69.3","30.11","296","3","9.2","0.00","0.00"
"06:59:59","56.3","46.1","68.5","30.12","303","2.9","12","0.00","0.00"
"07:04:57","56.5","46.5","69","30.12","301","2.3","9.2","0.00","0.00"
"07:09:56","56.8","46.3","68.1","30.12","307","3.4","9.2","0.00","0.00"
"07:14:57","57","46.6","68.2","30.13","313","2.5","9.2","0.00","0.00"
"07:19:56","57.2","46.7","68","30.13","304","2.9","6.9","0.00","0.00"
"07:24:59","57.5","46.6","67","30.13","301","3.8","12","0.00","0.00"
"07:29:58","57.8","46.9","67","30.13","276","2.2","7","0.00","0.00"
"07:34:58","58.2","47","66.4","30.13","317","3.8","10.4","0.00","0.00"
